Regional Weather Roundup
Issued by NWS

Home | Current Version | Previous Version | Text Only | Print | Product List | Glossary On
Versions: 1 2 3 4 5 6 7 8 9 10 11 12 13 14 15 16 17 18 19 20 21 22 23 24 25 26 27 28 29 30 31 32 33 34 35 36 37 38 39 40 41 42 43 44 45 46 47 48 49 50
646
ASUS44 KLUB 052201
RWRTX
WEST TEXAS WEATHER ROUNDUP
NATIONAL WEATHER SERVICE LUBBOCK TX
400 PM CST MON DEC 05 2016

NOTE: "FAIR" INDICATES FEW OR NO CLOUDS BELOW 12,000 FEET WITH NO
SIGNIFICANT WEATHER AND/OR OBSTRUCTIONS TO VISIBILITY.

TXZ004-006>008-010-012-014-016-OKZ002-052300-
TEXAS PANHANDLE/OKLAHOMA PANHANDLE

CITY           SKY/WX    TMP DP  RH WIND       PRES   REMARKS
AMARILLO       SUNNY     67  24  19 S15       29.55F
BORGER         SUNNY     67  27  22 S14       29.53F
CANADIAN       SUNNY     61  33  34 S14G23    29.57S
DALHART        SUNNY     69  22  16 SE8       29.52S
DUMAS            N/A     65  21  18 SW9       29.53
GUYMON         SUNNY     64  27  24 S9        29.52R
HEREFORD       SUNNY     69  21  16 W16       29.57F
PAMPA          SUNNY     63  32  31 S20       29.57F
PERRYTON       SUNNY     63  32  31 S15       29.54S
$$

TXZ026-029-035-045-048-052300-
SOUTHERN PANHANDLE/SOUTH PLAINS/ROLLING PLAINS

CITY           SKY/WX    TMP DP  RH WIND       PRES   REMARKS
CHILDRESS      SUNNY     58  35  42 S15G24    29.63F
SEMINOLE       SUNNY     59  38  45 SW15G21   29.70S
LUBBOCK        MOSUNNY   61  36  39 SW20      29.62F
PLAINVIEW      SUNNY     60  35  38 SW17      29.59F
SNYDER         SUNNY     58  41  54 S14       29.68F
$$

TXZ052-054-060>062-072-078-127-140-154-169-052300-
PERMIAN BASIN/CONCHO VALLEY/BIG COUNTRY/EDWARDS PLATEAU

CITY           SKY/WX    TMP DP  RH WIND       PRES   REMARKS
ABILENE        CLOUDY    50  46  86 SW10      29.71F
BIG SPRING     SUNNY     59  44  57 S17       29.73S
JUNCTION       LGT RAIN  49  48  97 W5        29.77S FOG
MIDLAND        SUNNY     62  36  37 SW18      29.70F
ODESSA         SUNNY     61  38  42 SW17      29.71F
SAN ANGELO     CLOUDY    50  47  89 SW10      29.74F
WINK           SUNNY     65  34  31 SW13G23   29.70F
$$

TXZ055-058-074-075-080-082-052300-
FAR WEST/SOUTHWEST MOUNTAINS/TRANS PECOS

CITY           SKY/WX    TMP DP  RH WIND       PRES   REMARKS
ALPINE         SUNNY     60  30  32 W18       29.89R
DRYDEN           N/A     61  46  57 SW18G24   29.75F
EL PASO        MOSUNNY   62  26  25 W15G21    29.83F
FORT STOCKTON  SUNNY     64  35  34 W12       29.76S
GUADALUPE PASS SUNNY     53  29  39 W30G39    29.83R
MARFA          SUNNY     56  29  35 W28G38    29.86F
PECOS          SUNNY     64  34  32 SW20G26   29.73F
$$

TXZ014-016-019-021>030-083-052300
TEXAS TECH WEST TEXAS MESONET/TEXAS PANHANDLE/NORTHERN SOUTH PLAINS

CITY           SKY/WX    TMP DP  RH WIND       PRES   REMARKS
ABERNATHY 5ENE   N/A     60  37  42 SW15      29.64F
AMARILLO 9NNE    N/A     70  22  16 SW7       29.54S
AMARILLO 7SSE    N/A     67  25  20 SW14      29.57F
AMHERST 1NE      N/A     66  23  19 W18G25    29.62S
BOOTLEG 11WNW    N/A     62  20  20 W18       29.62S
CANADIAN 6E      N/A     58  34  39 S18       29.57S
CAPROCK CYN SP   N/A     61  38  42 S14       29.62F
CHILDRESS 2NNE   N/A     57  35  44 S16       29.64S
CLARENDON 2WSW   N/A     62  33  33 S15G21    29.60F
CLAUDE 12SW      N/A     65  28  25 S15G21    29.57F
DIMMITT 2NE      N/A     64  24  22 SW18      29.59F
FLOYDADA 2NNE    N/A     58  37  45 S18       29.63S
FRIONA 2NE       N/A     67  20  16 W16       29.60F
GOODLETT 3W      N/A     57  39  51 S15       29.64F
HART 3N          N/A     64  25  23 SW17      29.61S
HEREFORD 2NW     N/A     67  19  15 W16       29.60S
MCLEAN 1E        N/A     59  29  32 S17G23    29.59S
MEMPHIS 1NE      N/A     61  32  33 S14G20    29.62S
MULESHOE 2SSW    N/A     68  22  17 W13       29.62F
OLTON 6S         N/A     65  27  23 SW15      29.62F
PALO DURO SP     N/A     67  26  21 S10       29.58F
PAMPA 2E         N/A     60  32  35 S17       29.58F
PLAINVIEW 1S     N/A     60  37  41 S17G24    29.61F
SILVERTON 7ESE   N/A     60  35  38 S15G21    29.60F
TULIA 2ENE       N/A     64  29  26 SW21      29.60F
TURKEY 2WSW      N/A     61  39  44 S14       29.62F
UMBARGER 3NNE    N/A     66  26  21 SW13      29.57F
$$

TXZ033>036-039>041-045>048-052300
TEXAS TECH WEST TEXAS MESONET/SOUTH PLAINS

CITY           SKY/WX    TMP DP  RH WIND       PRES   REMARKS
AIKEN 3WSW       N/A     60  36  41 S20       29.63F
ANDREWS 2NE      N/A     61  33  34 SW13G20   29.72F
ANTON 6SSW       N/A     63  38  38 S16       29.64F
BROWNFIELD 2S    N/A     58  37  44 SW18G25   29.67S
DENVR CTY 7WNW   N/A     61  29  30 SW18      29.69S
GAIL 2ESE        N/A     59  41  50 S15       29.67F
LAMESA 2SE       N/A     60  38  44 SW16      29.68F
LEVELLAND 4S     N/A     63  32  32 S17       29.65F
LUBBOCK 3WNW     N/A     62  34  36 S15       29.65F
MORTON 1ENE      N/A     67  22  18 W16       29.64F
ODONNELL 1N      N/A     58  37  44 SW21      29.67F
PLAINS 3N        N/A     64  28  25 SW18G25   29.68S
RALLS 1SE        N/A     58  40  50 SW15G22   29.66S
REESE CENTER     N/A     59  37  42 S18       29.65F
SEAGRAVES 1SW    N/A     61  36  40 SW21G26   29.68F
SEMINOLE 2NNE    N/A     60  35  38 SW14G22   29.69F
SLATON 2NE       N/A     59  40  49 SW18      29.65F
SNYDER 3E        N/A     58  42  56 S13       29.68F
SUNDOWN 8SW      N/A     66  28  24 SW18G25   29.65F
TAHOKA 3NNE      N/A     60  38  44 SW16      29.67R
WOLFFORTH 6SSW   N/A     60  36  40 S18       29.66S
$$

TXZ031-032-036>038-042>044-052300-
TEXAS TECH WEST TEXAS MESONET/ROLLING PLAINS

CITY           SKY/WX    TMP DP  RH WIND       PRES   REMARKS
ASPERMONT 3NE    N/A     58  40  52 S15       29.67F
FLUVANNA 3WNW    N/A     57  39  51 S17G23    29.68S
GRAHAM 5SSW      N/A     59  39  48 S18       29.66F
GUTHRIE 10WSW    N/A     60  37  43 S16G23    29.64F
HASKELL 1NW      N/A     53  43  68 S14       29.69F
JAYTON 1SSE      N/A     59  39  48 S14G20    29.65F
KNOX CITY 3NW    N/A     55  43  63 S15       29.67F
LK A HENRY 1NW   N/A     60  38  45 S15       29.66F
NORTHFIELD 1S    N/A     61  38  41 S17       29.63S
ODELL 4ENE       N/A     54  44  69 SE14      29.67F
PADUCAH 10SW     N/A     58  36  43 S17G23    29.64F
POST 1NE         N/A     61  38  41 S10       29.65F
RRING SPRGS 3N   N/A     60  38  44 S18G24    29.63F
SEYMOUR 3NW      N/A     55  43  64 S13       29.69F
SPUR 1W          N/A     59  37  43 S15G22    29.64F
WEINERT 2NNE     N/A     55  45  69 S12       29.69F
WHITE RVR 6NE    N/A     61  34  36 S17       29.64S
$$

TXZ052-054-060>062-072-078-127-140-154-169-052300-
TEXAS TECH WEST TEXAS MESONET/PERMIAN BASIN/
CONCHO VALLEY/BIG COUNTRY/EDWARDS PLATEAU

CITY           SKY/WX    TMP DP  RH WIND       PRES   REMARKS
COYANOSA 2N      N/A     66  35  31 W15       29.75S
JUNCTION 1SSW    N/A     49  48  95 SW7       29.80S
MERTZON 3NNE     N/A     55  48  77 SW10      29.77S
SAN ANGELO 7NW   N/A     51  45  80 SW8       29.75F
STRLNG CT 4WSW   N/A     58  43  56 S10       29.75S
ST LAWRNCE 5SW   N/A     58  42  55 SW16      29.74F
SWEETWATR 11SW   N/A     55  42  62 S12       29.72F
WALL 1E          N/A     49  44  85 SW8       29.77F
$$

TXZ055-058-074-075-080-082-052300-
TEXAS TECH WEST TEXAS MESONET/FAR WEST/SOUTHWEST MOUNTAINS/TRANS PECOS

CITY           SKY/WX    TMP DP  RH WIND       PRES   REMARKS
PRSMN GAP BBNP   N/A     62  43  50 SW17      29.82F
GUADLPE MTN NP   N/A     54  20  27 W23G29    29.83S
$$




USA.gov is the U.S. government's official web portal to all federal, state and local government web resources and services.